OpenBCM V2.0.2 (Linux)

Packet Radio Mailbox

IZ3LSV

[San Dona' di P. JN]

 Login: GUEST





  
LU9DCE > KEPS     22.03.18 18:13l 277 Lines 13569 Bytes #999 (0) @ WW
BID : 34845_LU9DCE
Read: GUEST
Subj: SAT TLE OF 22
Path: IZ3LSV<IR2UBX<EA2RCF<LU9DCE
Sent: 180322/1601Z @:LU9DCE.TOR.BA.ARG.SOAM #:34845 [TORTUGUITAS] FBB7.07
From: LU9DCE@LU9DCE.TOR.BA.ARG.SOAM
To  : KEPS@WW


            __    _  _  ___  ____   ___  ____    ____  ____  ____
           (  )  / )( \/ _ \(    \ / __)(  __)  (  _ \(  _ \/ ___)
           / (_/\) \/ (\__  )) D (( (__  ) _)    ) _ ( ) _ (\___ \
           \____/\____/(___/(____/ \___)(____)  (____/(____/(____/
               ESTACION DE PACKET RADIO - BUENOS AIRES (GF05OM)
                   BOLETINES INFORMATIVOS PROGRAMADOS (BIP)
                    LU9DCE@GMX.COM - RF 147070 @ 1200 BAUD
                           telnet lu9dce.dynu.com
             BBS port 6300 / NODE port 3694 / DXCLUSTER port 9000

+------------------------------------------------------------------------------+
OSCAR 7
1 07530U 74089B   18080.86890174 -.00000034  00000-0  67369-4 0  9996
2 07530 101.6769  49.5349 0012260 142.8051 271.6519 12.53631576983654
OSCAR 11 (UoSAT 2)
1 14781U 84021B   18080.69115091  .00000102  00000-0  18760-4 0  9994
2 14781  97.6607 120.5867 0008836  20.1216 340.0345 14.82988634831479
OSCAR 19 (LUSAT)
1 20442U 90005G   18081.06625501  .00000012  00000-0  20579-4 0  9999
2 20442  98.6034  20.1278 0012699  50.9154 309.3157 14.32889730471415
KITSAT B
1 22825U 93061C   18080.90024464  .00000013  00000-0  22803-4 0  9997
2 22825  98.8537  55.4771 0007451 237.6722 122.3739 14.30024726277097
POSAT 1
1 22826U 93061D   18080.93726234 +.00000006 +00000-0 +20067-4 0  9997
2 22826 098.8478 055.5634 0008092 226.4514 133.5996 14.30355759277034
RADIO ROSTO
1 23439U 94085A   18080.53645668 -.00000036 +00000-0 +19313-3 0  9997
2 23439 064.8146 130.5916 0160224 197.8629 272.1681 11.27566627956688
JAS 2
1 24278U 96046B   18080.82669626 -.00000014  00000-0  23515-4 0  9996
2 24278  98.5256 291.5784 0350024 337.7481  20.8781 13.53082311 66424
TECHSAT 1B
1 25397U 98043D   18080.88177461 -.00000001  00000-0  18676-4 0  9993
2 25397  98.6423  22.8018 0000200 314.5718  45.5444 14.23641822 23309
ISS (ZARYA)
1 25544U 98067A   18081.54828287  .00001826  00000-0  34799-4 0  9995
2 25544  51.6410  90.6266 0001789 229.5373 275.0541 15.54127149105047
PCSAT
1 26931U 01043C   18080.47007610 -.00000020  00000-0  24013-4 0  9998
2 26931  67.0499  95.7463 0006613 282.9968  77.0394 14.30497740860005
SAUDISAT 1C
1 27607U 02058C   18080.91183622 +.00000054 +00000-0 +28474-4 0  9994
2 27607 064.5571 356.8008 0055081 348.7524 011.2342 14.75430953819950
CUTE-1
1 27844U 03031E   18081.48852919  .00000058  00000-0  46063-4 0  9992
2 27844  98.6894  91.4149 0008639 261.4802  98.5397 14.22101042763877
CUBESAT XI 4
1 27848U 03031J   18080.93112524 +.00000036 +00000-0 +36521-4 0  9990
2 27848 098.6982 091.2336 0008527 274.6361 085.3842 14.21706503763632
MOZHAYETS 4
1 27939U 03042A   18081.53615953  .00000149  00000-0  35161-4 0  9998
2 27939  97.9754 222.9799 0014177  66.4463   7.2510 14.66667543774115
CUBESAT XI 5
1 28895U 05043F   18080.90123901 +.00000164 +00000-0 +40280-4 0  9995
2 28895 097.8955 235.9552 0016432 350.1126 009.9751 14.63520995660874
CUTE-1.7+APD II
1 32785U 08021C   18081.50843606  .00000288  00000-0  36968-4 0  9990
2 32785  97.5519  97.8070 0012264 332.1672  27.8887 14.88081191536288
DELFI C3
1 32789U 08021G   18080.93693633 +.00001207 +00000-0 +87278-4 0  9995
2 32789 097.5227 137.9233 0011276 229.8125 130.2116 15.05839468538556
SEEDS
1 32791U 08021J   18081.53655837  .00000497  00000-0  56313-4 0  9995
2 32791  97.5427 102.9902 0012158 311.5293  48.4882 14.90494573536602
YUBELEINY
1 32953U 08025A   18081.51860533  .00000015  00000-0  36766-4 0  9994
2 32953  82.5005  66.5731 0020076  41.5899 318.6704 12.43082344446007
PRISM (HITOMI)
1 33493U 09002B   18081.49410323  .00000505  00000-0  50487-4 0  9995
2 33493  98.1392 340.2231 0013700 243.6152 116.3625 14.96121696497385
KKS-1 (KISEKI)
1 33499U 09002H   18081.50180194  .00000162  00000-0  31960-4 0  9997
2 33499  98.3522 260.4663 0008721 201.3570 158.7275 14.75305762492394
SWISSCUBE
1 35932U 09051B   18080.89429338 +.00000157 +00000-0 +46475-4 0  9993
2 35932 098.5311 230.0214 0008831 115.9119 244.2989 14.56132903450696
BEESAT
1 35933U 09051C   18081.40878388  .00000143  00000-0  43213-4 0  9997
2 35933  98.5353 232.0391 0006890 124.6994 235.4853 14.56240157450910
ITUPSAT 1
1 35935U 09051E   18080.86461993 +.00000108 +00000-0 +35841-4 0  9997
2 35935 098.5463 231.7364 0009241 123.0303 237.1783 14.55420015450597
XIWANG-1 (HOPE-1)
1 36122U 09072B   18080.91076462 -.00000036 +00000-0 +16670-4 0  9998
2 36122 100.0817 099.6087 0006990 318.1099 041.9480 13.16343897397063
TISAT 1
1 36799U 10035E   18081.32943108  .00000595  00000-0  66591-4 0  9991
2 36799  98.0918 215.3200 0013481 130.4553 229.7841 14.90728393417216
JUGNU
1 37839U 11058B   18081.46147201  .00000341  00000-0  39910-4 0  9992
2 37839  19.9605 203.1352 0019093  10.9336  62.1622 14.12613208333097
SRMSAT
1 37841U 11058D   18080.49768543  .00000320  00000-0  30478-4 0  9992
2 37841  19.9715 256.3767 0011820 247.6575 136.5931 14.10601225332481
M-CUBED/EXP-1 PRIME
1 37855U 11061F   18081.54249541  .00001743  00000-0  96939-4 0  9994
2 37855 101.7248  99.7347 0177210 338.6417  20.7462 15.04192961348624
HORYU 2
1 38340U 12025D   18081.54568734  .00000231  00000-0  42071-4 0  9992
2 38340  98.3727 100.2660 0012714 123.6393 236.6030 14.75515953314332
STRAND 1
1 39090U 13009E   18080.81371240  .00000044  00000-0  30686-4 0  9992
2 39090  98.5304 288.2914 0008922 189.9042 170.1969 14.35015860265290
SOMP
1 39134U 13015E   18080.31028116  .00001924  00000-0  10085-3 0  9992
2 39134  64.8658  51.1211 0021315 221.5581 138.3926 15.18916531271558
BEESAT 3
1 39135U 13015F   18080.71691295  .00001682  00000-0  95395-4 0  9990
2 39135  64.8688  62.0384 0026480 246.7060 113.1278 15.16477957271387
BEESAT 2
1 39136U 13015G   18080.45821659  .00001612  00000-0  93143-4 0  9993
2 39136  64.8689  65.4228 0027106 246.0107 113.8180 15.15953834271295
CUBEBUG 1
1 39153U 13018D   18081.18351730  .00000269  00000-0  42186-4 0  9992
2 39153  97.9768 176.9544 0016071 224.6130 135.3790 14.80357631264714
ZACUBE
1 39417U 13066B   18080.88287873  .00000304  00000-0  44633-4 0  9999
2 39417  97.5969 114.1407 0060663  81.5018 279.3064 14.80894077233875
TRITON 1
1 39427U 13066M   18081.51053798  .00000182  00000-0  36996-4 0  9995
2 39427  97.6395  83.1951 0114227 176.3389 183.8679 14.67624659231869
GOMX 1
1 39430U 13066Q   18081.48321041  .00000193  00000-0  44485-4 0  9998
2 39430  97.6902  64.6437 0150262 244.0343 114.5313 14.59041329230506
HUMSAT D
1 39433U 13066T   18081.11271216  .00000670  00000-0  71326-4 0  9993
2 39433  97.6146 140.4942 0031213  15.4188 344.7975 14.91781717235441
50 SAT
1 39436U 13066W   18081.32142538  .00114750  00000-0  11061-2 0  9996
2 39436  97.7121 210.8126 0003516 197.6351 162.4787 15.66136520239689
CUBEBUG 2
1 39440U 13066AA  18081.00754061  .00000274  00000-0  45020-4 0  9995
2 39440  97.6073 101.3993 0081947 118.2229 242.7286 14.75628802233062
FUNCUBE 1
1 39444U 13066AE  18081.12695957  .00000353  00000-0  49948-4 0  9991
2 39444  97.5981 115.7865 0059788  76.5737 284.2131 14.81662316232769
UWE-3
1 39446U 13066AG  18080.77341871  .00000275  00000-0  43160-4 0  9999
2 39446  97.6008 107.2387 0071820 100.7212 260.2096 14.78162374232204
SPROUT
1 39770U 14029E   18081.50748317  .00000948  00000-0  11263-3 0  9992
2 39770  97.8717 183.3090 0010430 128.2071 232.0088 14.86728365207484
UNISAT 6
1 40012U 14033C   18081.51516928  .00000221  00000-0  40433-4 0  9996
2 40012  97.8212 320.9359 0059739 117.7864 242.9418 14.73779807201934
DUCHIFAT 1
1 40021U 14033M   18081.30983416  .00000610  00000-0  68649-4 0  9994
2 40021  97.9172 359.8725 0014398 102.9986 257.2840 14.90230716204011
QB50P1
1 40025U 14033R   18080.70160440 +.00000399 +00000-0 +48762-4 0  9993
2 40025 097.9079 356.2711 0013857 110.2818 249.9890 14.88659044203267
CHUBUSAT 1
1 40300U 14070C   18081.53601948  .00001174  00000-0  55139-4 0  9993
2 40300  97.3691 161.0685 0019385 201.9368 214.2434 15.21441073187101
NUDT-PHONESAT
1 40900U 15049B   18081.20969150  .00002561  00000-0  11864-3 0  9999
2 40900  97.4436  90.4799 0012856 341.1783  18.8976 15.20940693138690
ZDPS 2A
1 40901U 15049C   18081.53685311  .00001224  00000-0  65392-4 0  9991
2 40901  97.4604  89.2414 0013272 346.1789  13.9079 15.16925681138529
ZDPS 2B
1 40902U 15049D   18081.16907567  .00001136  00000-0  61276-4 0  9990
2 40902  97.4497  87.0465 0013285 344.3762  15.7059 15.16726767138451
XW-2A
1 40903U 15049E   18081.51565724  .00002406  00000-0  61991-4 0  9990
2 40903  97.3946 115.4783 0013847 350.3207   9.7770 15.40147371140466
KAITUO 1A
1 40904U 15049F   18081.55757199  .00000884  00000-0  50876-4 0  9992
2 40904  97.4585  86.7639 0014597 345.4204 129.4352 15.14927186138387
OBJECT G
1 40905U 15049G   18081.49901823  .00000565  00000-0  34730-4 0  9998
2 40905  97.4587  84.9274 0015112 336.5281  23.5259 15.13892855138300
XW-2C
1 40906U 15049H   18081.53827694  .00000880  00000-0  50486-4 0  9993
2 40906  97.4605  86.6247 0014344 336.4145  23.6427 15.15068984138370
XW-2D
1 40907U 15049J   18081.49911235  .00000941  00000-0  53510-4 0  9993
2 40907  97.4578  86.2941 0013654 334.6263  25.4297 15.15211000138375
LILACSAT 2
1 40908U 15049K   18081.20413301  .00000501  00000-0  31594-4 0  9994
2 40908  97.4687  85.4739 0015341 335.8302  24.2208 15.13437989138211
XW-2F
1 40910U 15049M   18081.51423090  .00001435  00000-0  77286-4 0  9992
2 40910  97.4584  87.4679 0014259 330.2552  29.7869 15.16343312138322
XW-2B
1 40911U 15049N   18081.51350140  .00000945  00000-0  53805-4 0  9994
2 40911  97.4615  86.8125 0013572 335.1419  24.9158 15.15158341138277
